This is the latest recevied weather packets stored in our database for station/object AA8FM-13. If no packets are shown the sender has not sent any weather packets the latest 10 day(s).
| Time | Temp. | Humidity | Pressure | Rain* | Wind** | Luminosity | Snow |
|---|---|---|---|---|---|---|---|
| 1777567712 | 8.33° C | 89% | 1010.8 hPa | 0 mm | - | 139 W/m² | - |
| 1777567409 | 8.33° C | 89% | 1010.7 hPa | 0 mm | - | 111 W/m² | - |
| 1777567107 | 8.89° C | 88% | 1010.6 hPa | 0 mm | - | 105 W/m² | - |
| 1777566804 | 8.89° C | 87% | 1011 hPa | 0 mm | - | 129 W/m² | - |
| 1777566502 | 8.89° C | 85% | 1010.7 hPa | 0 mm | - | 112 W/m² | - |
| 1777566199 | 10.56° C | 75% | 1010.4 hPa | 0 mm | - | 55 W/m² | - |
| 1777565895 | 11.11° C | 68% | 1010.2 hPa | 0 mm | - | 56 W/m² | - |
| 1777565591 | 11.67° C | 66% | 1010 hPa | 0 mm | - | 123 W/m² | - |
| 1777565288 | 11.67° C | 67% | 1010 hPa | 0 mm | - | 186 W/m² | - |
| 1777564984 | 12.22° C | 66% | 1010.1 hPa | 0 mm | - | 519 W/m² | - |
| 1777564679 | 12.78° C | 66% | 1009.7 hPa | 0 mm | - | 515 W/m² | - |
| 1777564375 | 12.22° C | 67% | 1010.2 hPa | 0 mm | - | 303 W/m² | - |
| 1777564071 | 12.78° C | 71% | 1009.9 hPa | 0 mm | - | 759 W/m² | - |
| 1777563767 | 12.22° C | 67% | 1010.1 hPa | 0 mm | - | 673 W/m² | - |
| 1777563464 | 11.67° C | 68% | 1010.1 hPa | 0 mm | - | 759 W/m² | - |
| 1777563163 | 11.67° C | 72% | 1010.2 hPa | 0 mm | - | 692 W/m² | - |
| 1777562859 | 11.67° C | 66% | 1010.3 hPa | 0 mm | - | 422 W/m² | - |
| 1777562557 | 12.22° C | 68% | 1010.3 hPa | 0 mm | - | 209 W/m² | - |
| 1777562254 | 11.67° C | 72% | 1010 hPa | 0 mm | - | 778 W/m² | - |
| 1777561952 | 11.67° C | 75% | 1010.3 hPa | 0 mm | - | 284 W/m² | - |
| 1777561649 | 10° C | 77% | 1010.3 hPa | 0 mm | - | 696 W/m² | - |
| 1777561345 | 10° C | 74% | 1010.2 hPa | 0 mm | - | 112 W/m² | - |
| 1777561040 | 10.56° C | 76% | 1010.2 hPa | 0 mm | - | 67 W/m² | - |
| 1777560736 | 10.56° C | 74% | 1010 hPa | 0 mm | - | 53 W/m² | - |
| 1777560432 | 10.56° C | 71% | 1010.2 hPa | 0 mm | - | 75 W/m² | - |
* Rain latest hour (hover to see other rain measurements)
** Current wind speed in m/s (hover to see current wind gust speed)